[[{"header":{"parameterUnit":"m.s-1","parameterCategory":1,"la1":30.2991,"la2":30.254,"lo1":-89.0895,"lo2":-89.0444,"dy":0.0017,"dx":0.0017,"nx":28,"ny":28,"refTime":"2025-04-05T21:00:00:Z","depth":0,"parameterNumber":2,"parameterNumberName":"U-component_of_WINDS"},"data":[0,0,0,0,0,0,0,0,0,0,0,0,0,0,0,0,0,0,0,0,0,0,0,0,0,0,0,0,0,0,0,0,0,0,0,0,0,0,0,0,0,0,0,0,0,0,0,0,0,0,0,0,0,0,0,0,0,0,-0.5181,-0.5182,0,-0.5205,-0.5205,-0.5206,-0.5246,-0.5247,-0.5248,-0.5249,-0.5272,-0.5272,-0.5272,0,0,0,0,0,0,0,0,0,0,0,0,0,-0.5171,-0.5171,-0.5181,-0.5182,-0.5182,-0.5205,-0.5205,-0.5206,-0.5246,-0.5247,-0.5248,-0.5249,-0.5272,-0.5272,-0.5272,0,0,0,0,0,0,0,0,0,0,0,0,0,-0.5183,-0.5171,-0.5181,-0.5205,-0.5207,-0.5205,-0.5205,-0.5206,-0.5246,-0.5247,-0.5248,-0.5249,-0.5272,-0.5272,-0.5272,-0.5248,0,0,-0.5271,-0.5271,0,0,0,0,0,0,0,0,-0.5182,-0.5184,-0.5201,-0.5203,-0.5206,-0.5224,-0.521,-0.522,-0.5246,-0.5231,-0.5249,-0.525,-0.5255,-0.5256,-0.5258,-0.5249,-0.525,-0.5271,-0.5271,-0.5271,-0.5271,0,0,0,0,0,0,0,-0.5182,-0.5183,-0.5191,-0.5202,-0.5204,-0.5214,-0.5217,-0.5212,-0.5236,-0.5233,-0.5236,-0.5238,-0.5257,-0.5258,-0.5259,-0.525,-0.5271,-0.5271,-0.5271,-0.5271,-0.5223,-0.5222,0,0,0,0,0,0,-0.5177,-0.5182,-0.519,-0.5192,-0.5197,-0.5214,-0.5217,-0.5217,-0.5237,-0.5241,-0.5237,-0.524,-0.5258,-0.5259,-0.526,-0.5233,-0.5271,-0.5271,-0.5271,-0.5224,-0.5223,-0.5222,0,0,0,0,0,0,-0.5177,-0.5178,-0.5189,-0.5188,-0.519,-0.5213,-0.5212,-0.5217,-0.5219,-0.524,-0.5244,-0.5234,-0.5259,-0.526,-0.5251,-0.5235,-0.5271,-0.5271,-0.5226,-0.5224,-0.5222,-0.518,0,0,0,0,0,0,-0.5177,-0.5177,-0.5168,-0.5187,-0.519,-0.5179,-0.5211,-0.5217,-0.5218,-0.5222,-0.5239,-0.5242,-0.526,-0.5251,-0.5251,-0.5235,-0.5271,-0.5227,-0.5225,-0.5223,-0.5183,-0.5177,-0.5172,0,0,0,0,0,-0.5176,-0.5155,-0.5168,-0.5169,-0.5179,-0.5178,-0.518,-0.5201,-0.5217,-0.5208,-0.5222,-0.5242,-0.5237,-0.5249,-0.525,-0.5234,-0.5228,-0.5226,-0.5223,-0.5185,-0.5178,-0.5172,0,0,0,0,0,0,-0.5134,-0.5158,-0.5172,-0.5157,-0.5165,-0.5185,-0.5175,-0.5192,-0.5196,-0.5199,-0.5225,-0.5228,-0.5215,-0.5224,-0.5238,-0.5212,-0.5236,-0.5233,-0.5207,-0.52,-0.5195,-0.5193,-0.5271,0,0,0,0,0,-0.5123,-0.5121,-0.5142,-0.5126,-0.513,-0.5151,-0.5152,-0.5167,-0.5177,-0.518,-0.5194,-0.5202,-0.5202,-0.5202,-0.5203,-0.5184,-0.5189,-0.5174,-0.5168,-0.5164,-0.5161,-0.5152,-0.5145,-0.5213,-0.5213,-0.5213,0,0,-0.51,-0.5113,-0.511,-0.5118,-0.5127,-0.5123,-0.5154,-0.5149,-0.5147,-0.518,-0.5172,-0.5181,-0.5192,-0.5178,-0.5172,-0.5185,-0.5143,-0.516,-0.5156,-0.5156,-0.5148,-0.5142,-0.5136,-0.5211,-0.5211,-0.5212,0,0,-0.5057,-0.5067,-0.5055,-0.5063,-0.5075,-0.5089,-0.5086,-0.5104,-0.5112,-0.5104,-0.5129,-0.5126,-0.5126,-0.5133,-0.5137,-0.5096,-0.5115,-0.5096,-0.5067,-0.5058,-0.5052,-0.5048,-0.5033,-0.5028,-0.5093,-0.5093,-0.5093,0,-0.5027,-0.5023,-0.5046,-0.504,-0.5043,-0.5073,-0.5061,-0.5068,-0.5079,-0.5081,-0.5094,-0.5095,-0.5105,-0.5093,-0.5083,-0.5085,-0.5082,-0.5094,-0.5051,-0.5047,-0.5043,-0.5029,-0.5024,-0.5091,-0.5091,-0.5091,-0.5092,0,-0.4985,-0.4982,-0.4971,-0.4982,-0.4984,-0.4975,-0.4997,-0.4996,-0.5011,-0.5025,-0.5016,-0.5029,-0.5034,-0.5032,-0.5047,-0.5022,-0.5029,-0.5047,-0.5071,-0.5034,-0.5021,-0.5016,-0.5088,-0.5088,-0.5089,-0.509,0,0,-0.4916,-0.494,-0.4936,-0.4941,-0.4957,-0.4955,-0.4947,-0.4952,-0.4951,-0.4958,-0.4952,-0.4952,-0.4968,-0.4972,-0.4988,-0.498,-0.4947,-0.4999,-0.5,-0.4989,-0.492,-0.4907,-0.49,-0.496,-0.4959,-0.4958,-0.4919,0,-0.4875,-0.4864,-0.4885,-0.4868,-0.4866,-0.4894,-0.4888,-0.4897,-0.4909,-0.4908,-0.4922,-0.4921,-0.4943,-0.4946,-0.4939,-0.4953,-0.4934,-0.4956,-0.4955,-0.4954,-0.495,-0.4894,-0.4879,-0.4842,-0.4915,-0.4914,-0.4913,0,-0.4827,-0.4832,-0.4815,-0.4832,-0.4832,-0.4825,-0.4832,-0.4831,-0.4842,-0.4851,-0.4856,-0.4875,-0.4869,-0.4892,-0.4884,-0.4898,-0.4899,-0.4906,-0.4905,-0.4905,-0.4931,-0.4892,-0.483,-0.4825,-0.4906,-0.4907,-0.4907,0,-0.4777,-0.478,-0.477,-0.4774,-0.4794,-0.4789,-0.4797,-0.4809,-0.481,-0.4816,-0.4817,-0.4822,-0.4824,-0.4827,-0.4847,-0.4862,-0.4836,-0.4861,-0.4844,-0.4843,-0.4836,-0.4836,-0.4773,-0.4837,-0.4837,-0.4837,-0.4838,0,-0.473,-0.4718,-0.4748,-0.4742,-0.473,-0.4755,-0.4742,-0.4753,-0.4763,-0.476,-0.4785,-0.4781,-0.4808,-0.4807,-0.4823,-0.4813,-0.4814,-0.4822,-0.4826,-0.4819,-0.4818,-0.4819,-0.4822,-0.4836,-0.4836,-0.4837,-0.4837,0,-0.4672,-0.4692,-0.4683,-0.4703,-0.4707,-0.4698,-0.4714,-0.471,-0.4724,-0.4719,-0.4719,-0.4741,-0.4742,-0.4762,-0.4766,-0.4777,-0.4761,-0.477,-0.4757,-0.476,-0.4741,-0.4742,-0.4676,-0.4668,-0.4737,-0.4737,-0.4736,0,-0.464,-0.4632,-0.4651,-0.4651,-0.4657,-0.4656,-0.4658,-0.4682,-0.4683,-0.4695,-0.4688,-0.4691,-0.4694,-0.4693,-0.4709,-0.4713,-0.4722,-0.4699,-0.4723,-0.4716,-0.4722,-0.4722,-0.4721,-0.4694,-0.4693,-0.4692,-0.4691,0,-0.4582,-0.4592,-0.4594,-0.4599,-0.46,-0.4606,-0.4612,-0.4611,-0.4637,-0.4636,-0.4637,-0.464,-0.4644,-0.4646,-0.4653,-0.4661,-0.468,-0.4684,-0.468,-0.4673,-0.4665,-0.4669,-0.4743,-0.4685,-0.4686,-0.4686,-0.4687,-0.4687,-0.4536,-0.453,-0.4542,-0.4544,-0.4551,-0.4557,-0.4554,-0.4567,-0.4568,-0.4574,-0.4588,-0.4586,-0.4598,-0.4609,-0.4615,-0.4615,-0.4626,-0.4621,-0.4619,-0.4617,-0.4613,-0.4666,-0.4616,-0.4616,-0.4616,-0.4616,-0.4617,0,-0.4479,-0.4488,-0.4489,-0.4498,-0.4499,-0.4517,-0.4526,-0.4525,-0.4523,-0.4532,-0.4535,-0.4536,-0.4538,-0.4555,-0.4559,-0.4555,-0.4564,-0.4555,-0.4555,-0.4557,-0.4603,-0.4606,-0.4548,-0.4548,-0.4548,-0.4548,-0.4548,-0.4548,-0.4449,-0.444,-0.4451,-0.4446,-0.4456,-0.4455,-0.4458,-0.4463,-0.4471,-0.4471,-0.4473,-0.4484,-0.4496,-0.4501,-0.4504,-0.4509,-0.4509,-0.4497,-0.4505,-0.4547,-0.4554,-0.456,-0.4563,-0.4497,-0.4497,-0.4459,-0.4459,-0.4458]},{"header":{"parameterUnit":"m.s-1","parameterCategory":1,"la1":30.2991,"la2":30.254,"lo1":-89.0895,"lo2":-89.0444,"dy":0.0017,"dx":0.0017,"nx":28,"ny":28,"refTime":"2025-04-05T21:00:00:Z","depth":0,"parameterNumber":3,"parameterNumberName":"V-component_of_WINDS"},"data":[0,0,0,0,0,0,0,0,0,0,0,0,0,0,0,0,0,0,0,0,0,0,0,0,0,0,0,0,0,0,0,0,0,0,0,0,0,0,0,0,0,0,0,0,0,0,0,0,0,0,0,0,0,0,0,0,0,0,6.2523,6.2524,0,6.2641,6.2642,6.2643,6.2643,6.2641,6.264,6.2638,6.2753,6.2757,6.2762,0,0,0,0,0,0,0,0,0,0,0,0,0,6.2293,6.2297,6.2523,6.2524,6.2526,6.264,6.2642,6.2644,6.2643,6.2641,6.2639,6.2638,6.2752,6.2757,6.2762,0,0,0,0,0,0,0,0,0,0,0,0,0,6.24,6.2298,6.2522,6.2539,6.2542,6.264,6.2642,6.2644,6.2643,6.2641,6.2639,6.2637,6.275,6.2756,6.2763,6.285,0,0,6.2783,6.2786,0,0,0,0,0,0,0,0,6.2394,6.2408,6.2535,6.2538,6.2542,6.2625,6.2603,6.2713,6.2644,6.2605,6.2638,6.2636,6.2712,6.2721,6.2748,6.2855,6.286,6.2784,6.2788,6.2791,6.2793,0,0,0,0,0,0,0,6.2386,6.2403,6.2569,6.2537,6.2541,6.254,6.2552,6.2624,6.2669,6.2608,6.2608,6.2623,6.2713,6.2742,6.2751,6.2862,6.2784,6.279,6.2794,6.2797,6.3049,6.3052,0,0,0,0,0,0,6.2376,6.2397,6.2565,6.2573,6.2461,6.2546,6.256,6.26,6.2669,6.2677,6.2624,6.2622,6.2732,6.2743,6.2755,6.2864,6.2791,6.2797,6.2801,6.3047,6.305,6.3053,0,0,0,0,0,0,6.2371,6.2391,6.2561,6.2485,6.2507,6.2552,6.2598,6.2604,6.2633,6.2681,6.2689,6.2646,6.273,6.2746,6.2828,6.2868,6.28,6.2806,6.3043,6.3048,6.3051,6.3081,0,0,0,0,0,0,6.2365,6.2389,6.2424,6.2486,6.2511,6.2633,6.26,6.2608,6.2645,6.2643,6.2703,6.2711,6.273,6.2818,6.2834,6.2876,6.2812,6.304,6.3045,6.305,6.3077,6.3086,6.3093,0,0,0,0,0,6.2356,6.2426,6.2426,6.2446,6.2555,6.2635,6.2649,6.267,6.2648,6.2683,6.2715,6.2709,6.2861,6.2826,6.2845,6.2889,6.3038,6.3044,6.305,6.3073,6.3084,6.3093,0,0,0,0,0,0,6.2364,6.2434,6.2435,6.2526,6.2575,6.2635,6.2679,6.2681,6.2735,6.2731,6.2753,6.2767,6.2849,6.2877,6.2837,6.2978,6.2946,6.2956,6.2958,6.2968,6.2976,6.2969,6.2817,0,0,0,0,0,6.2377,6.2438,6.2495,6.257,6.2595,6.2633,6.2668,6.2681,6.2731,6.2751,6.2789,6.2836,6.2895,6.2933,6.2989,6.308,6.3094,6.312,6.3128,6.3135,6.3144,6.3197,6.3209,6.3073,6.3073,6.3072,0,0,6.2403,6.2449,6.2485,6.2573,6.2612,6.2674,6.265,6.2715,6.2761,6.276,6.2842,6.2871,6.2925,6.3013,6.3054,6.3039,6.3185,6.3143,6.3148,6.3153,6.3204,6.3217,6.3229,6.3077,6.3076,6.3075,0,0,6.2483,6.2523,6.2592,6.2633,6.2694,6.2719,6.2735,6.2796,6.2816,6.2898,6.29,6.2953,6.3053,6.3093,6.3127,6.3224,6.3222,6.3242,6.3285,6.3337,6.3347,6.3357,6.3394,6.3407,6.325,6.325,6.325,0,6.2508,6.2603,6.2626,6.2694,6.2733,6.2738,6.2808,6.2845,6.292,6.2946,6.2929,6.3057,6.3093,6.3192,6.3216,6.3242,6.3262,6.3235,6.3344,6.3354,6.3364,6.3399,6.3413,6.3252,6.3252,6.3252,6.3252,0,6.2631,6.2697,6.2744,6.2821,6.2864,6.2932,6.2966,6.3007,6.3016,6.3043,6.3127,6.3172,6.3239,6.3263,6.3271,6.3364,6.3353,6.334,6.3308,6.3378,6.3412,6.3426,6.3255,6.3255,6.3254,6.3253,0,0,6.2718,6.2809,6.2827,6.2862,6.2931,6.2981,6.3049,6.3118,6.3154,6.3205,6.3263,6.3349,6.3338,6.3376,6.3389,6.3434,6.3511,6.3415,6.3417,6.3433,6.3618,6.3629,6.3644,6.351,6.3513,6.3515,6.3614,0,6.2807,6.2932,6.2956,6.3063,6.3125,6.3132,6.3191,6.3239,6.3267,6.3322,6.3351,6.3413,6.3392,6.3416,6.346,6.3492,6.3549,6.3485,6.3564,6.3567,6.3553,6.3662,6.3673,6.3765,6.3627,6.363,6.3631,0,6.2928,6.2987,6.3101,6.3164,6.3191,6.3244,6.331,6.3363,6.3417,6.3434,6.3478,6.3486,6.3557,6.3522,6.362,6.3577,6.361,6.3631,6.3635,6.3644,6.3604,6.3676,6.3794,6.3809,6.3652,6.365,6.3649,0,6.2983,6.309,6.3173,6.3203,6.3278,6.3316,6.3348,6.3401,6.3441,6.3498,6.3524,6.3587,6.3622,6.367,6.3696,6.3667,6.3793,6.3759,6.3809,6.3809,6.3836,6.3834,6.3964,6.3855,6.3854,6.3854,6.3854,0,6.3081,6.3151,6.32,6.3251,6.333,6.3357,6.3434,6.3466,6.3513,6.357,6.3578,6.3631,6.366,6.3718,6.3737,6.3817,6.3832,6.3848,6.3852,6.3848,6.3847,6.3871,6.3866,6.3858,6.3857,6.3856,6.3856,0,6.3157,6.3192,6.3283,6.3348,6.3366,6.3422,6.3476,6.3526,6.3554,6.3626,6.3644,6.3687,6.3756,6.3786,6.3868,6.3882,6.3974,6.3972,6.3956,6.3958,6.4008,6.4003,6.4159,6.4181,6.4056,6.4057,6.4058,0,6.3218,6.3273,6.3344,6.3384,6.3419,6.3483,6.3525,6.3553,6.3597,6.3665,6.3706,6.3775,6.3832,6.3941,6.3978,6.4042,6.4044,6.4094,6.4054,6.4049,6.4048,6.4045,6.4051,6.4102,6.4103,6.4104,6.4105,0,6.3323,6.3339,6.34,6.3469,6.352,6.3574,6.3627,6.3659,6.3696,6.3744,6.3815,6.386,6.3946,6.4015,6.4082,6.4114,6.4116,6.4118,6.4133,6.413,6.4119,6.4128,6.3978,6.4114,6.4113,6.4113,6.4112,6.4112,6.3395,6.3445,6.3504,6.3573,6.3617,6.3667,6.3718,6.3754,6.3815,6.3889,6.3902,6.3978,6.4033,6.4124,6.4158,6.4218,6.4206,6.4227,6.4233,6.4239,6.4243,6.4109,6.423,6.423,6.4229,6.4229,6.4229,0,6.3502,6.3542,6.3605,6.3681,6.3736,6.3735,6.3794,6.384,6.3908,6.396,6.4017,6.4099,6.4167,6.4211,6.4279,6.4318,6.4321,6.4335,6.4333,6.4341,6.4249,6.423,6.4332,6.4332,6.4332,6.4332,6.4332,6.4332,6.3565,6.3651,6.3674,6.3782,6.382,6.3897,6.3931,6.3978,6.402,6.4113,6.417,6.4199,6.4249,6.4321,6.4382,6.4394,6.4419,6.4434,6.4445,6.4358,6.4347,6.4337,6.432,6.4439,6.4439,6.4533,6.4534,6.4534]}]]